Torna al catalogo

KUIPER-00059

AttivoComunicazioniLEO
NORAD 64519·PAYLOAD·🇺🇸 United States

Lanciato Jun 23, 2025 da Cape Canaveral Space Force Station

Loading…

Prossimi Passaggi (prossime 24 ore)

TLE

AggiornatoSource: CelesTrak SupGP

Epoca: Sep 14, 2026, 21:11 UTC

1 64519C 25134V   26257.88311343 -.00022029  00000+0 -28839-2 0  2578
2 64519  51.8982 103.9709 0000548 109.1335   1.6018 14.79949546    13

Traccia KUIPER-00059 in tempo reale con AllMySat

Download on the App Store